Terminal Aerodrome Forecast
Issued by NWS St Louis, MO

Home | Current Version | Previous Version | Text Only | Print | Product List | Glossary On
Versions: 1 2 3 4 5 6 7 8 9 10 11 12 13 14 15 16 17 18 19 20 21 22 23 24 25 26 27 28 29
000
FTUS43 KLSX 281700
TAFSTL
TAF
KSTL 281725Z 2818/2924 16007KT P6SM FEW040
     FM282000 13008KT P6SM VCTS SCT050CB BKN120
     FM290200 12006KT P6SM SCT200
     FM291300 17007KT P6SM SCT060
     FM292000 18009KT P6SM VCTS BKN040CB=

USA.gov is the U.S. government's official web portal to all federal, state and local government web resources and services.